Location: Unspecified
(0.0000°N, 0.0000°E)
Time: 19:58:38
(UTC+00:00)

Vanguard 1 - Pass Details

Date: 25 June 2025
Orbit: 649 x 3822 km, 34.2° (Epoch: 12 July)

Event Time Altitude Azimuth Distance (km) Brightness Sun altitude
Exits shadow 05:11:04 14° 267° (W) 2,103 11.2 -11.8°
Maximum altitude 05:15:17 37° 331° (NNW) 1,472 10.9 -10.9°
Drops below altitude 10° 05:22:50 10° 36° (NE) 3,601 14.0 -9.1°
Sets 05:27:10 0° 44° (NE) 5,114 15.2 -8.2°
